Back to catalog

TANAGER-1 4001

AliveScienceSSO
NORAD 60507·PAYLOAD·🇺🇸 United States

Launched Aug 16, 2024 from Vandenberg Space Force Base

Loading…

Next Passes (next 24 hours)

TLE

FreshSource: CelesTrak SupGP

Epoch: Sep 14, 2026, 14:44 UTC

1 60507C 24149BT  26257.61457176 -.00039131  00000+0 -86357-3 0  2574
2 60507  97.2280 351.3654 0001162  30.1247 100.6335 15.43969911    19

Track TANAGER-1 4001 in real time with AllMySat

Download on the App Store